Location: Chagrin Falls Park
(41.4139°N, 81.3865°W)
Time: 07:59:37
(UTC+00:00)

Aureole 3 Rocket - Pass Details

Date: 29 October 2020
Orbit: 399 x 1739 km, 82.5° (Epoch: 28 November)

Event Time Altitude Azimuth Distance (km) Brightness Sun altitude
Rises 23:23:59 0° 190° (S) 2,592 6.5 -11.8°
Reaches altitude 10° 23:25:49 10° 191° (SSW) 1,822 5.7 -12.2°
Maximum altitude 23:29:46 79° 278° (W) 688 3.4 -12.9°
Drops below altitude 10° 23:35:19 10° 6° (N) 2,535 6.1 -14.0°
Sets 23:38:15 0° 8° (N) 3,712 6.9 -14.5°
